Location: Tucson
(32.2217°N, 110.9265°W)
Time: 01:04:14
(UTC-07:00)

Explorer 11/Cluster Stage 4 - All Passes

Search period start: 21 October 2021 00:00
Search period end: 31 October 2021 00:00
Orbit: 467 x 1256 km, 28.8° (Epoch: 20 October)

Date Brightness Start Highest point End Pass type
(mag) Time Alt. Az. Time Alt. Az. Time Alt. Az.
21 Oct - 00:14:32 10° W 00:22:42 68° S 00:30:35 10° ESE night (unlit)
21 Oct - 02:04:06 10° W 02:11:48 45° SSW 02:18:43 10° SE night (unlit)
21 Oct - 03:55:16 10° WSW 04:00:05 18° SSW 04:04:30 10° S visible
21 Oct - 18:41:06 10° S 18:44:48 16° SE 18:48:51 10° ESE visible
21 Oct - 20:26:24 10° SW 20:32:56 42° SSE 20:40:25 10° E visible
21 Oct - 22:14:18 10° WSW 22:21:56 67° S 22:30:07 10° E visible
22 Oct - 00:03:12 10° W 00:11:17 66° S 00:19:15 10° ESE night (unlit)
22 Oct - 01:52:46 10° W 02:00:21 41° SSW 02:07:20 10° SE night (unlit)
22 Oct - 03:44:16 10° WSW 03:48:39 16° SW 03:52:43 10° S visible
22 Oct - 18:29:25 10° S 18:33:24 17° SSE 18:37:50 10° ESE visible
22 Oct - 20:15:05 10° SW 20:21:32 45° SSE 20:29:01 10° E visible
22 Oct - 22:03:03 10° WSW 22:10:31 68° S 22:18:43 10° E visible
22 Oct - 23:51:54 10° W 23:59:51 64° S 00:07:53 10° ESE night (unlit)
23 Oct - 01:41:27 10° W 01:48:53 38° SSW 01:55:53 10° SE night (unlit)
23 Oct - 03:33:27 10° WSW 03:37:11 14° SW 03:40:46 10° S visible
23 Oct - 18:17:52 10° SSW 18:22:00 19° SSE 18:26:42 10° ESE visible
23 Oct - 20:03:51 10° SW 20:10:08 48° SSE 20:17:34 10° E visible
23 Oct - 21:51:50 10° WSW 21:59:07 69° S 22:07:18 10° E visible
23 Oct - 23:40:37 10° W 23:48:25 61° S 23:56:29 10° ESE night (unlit)
24 Oct - 01:30:10 10° W 01:37:25 35° SSW 01:44:22 10° SE night (unlit)
24 Oct - 03:22:54 10° WSW 03:25:44 12° SW 03:28:28 10° SSW night (unlit)
24 Oct - 18:06:24 10° SSW 18:10:38 21° SSE 18:15:31 10° ESE visible
24 Oct - 19:52:38 10° WSW 19:58:46 51° SSE 20:06:09 10° E visible
24 Oct - 21:40:38 10° W 21:47:44 69° S 21:55:52 10° E visible
24 Oct - 23:29:21 10° W 23:37:00 58° SSW 23:45:02 10° ESE night (unlit)
25 Oct - 01:18:57 10° W 01:25:56 32° SSW 01:32:47 10° SSE night (unlit)
25 Oct - 03:13:22 10° SW 03:14:16 10° SW 03:15:10 10° SSW night (unlit)
25 Oct - 17:55:02 10° SSW 17:59:17 23° SSE 18:04:16 10° E visible
25 Oct - 19:41:29 10° WSW 19:47:26 53° SSE 19:54:41 10° E visible
25 Oct - 21:29:28 10° W 21:36:23 69° S 21:44:25 10° E visible
25 Oct - 23:18:08 10° W 23:25:34 54° SSW 23:33:33 10° ESE night (unlit)
26 Oct - 01:07:47 10° W 01:14:28 28° SSW 01:21:06 10° SSE night (unlit)
26 Oct - 17:43:42 10° SSW 17:47:57 25° SSE 17:52:59 10° E daylight
26 Oct - 19:30:22 10° WSW 19:36:07 56° SSE 19:43:14 10° E visible
26 Oct - 21:18:20 10° W 21:25:02 68° S 21:32:56 10° ESE visible
26 Oct - 23:06:56 10° W 23:14:08 50° SSW 23:22:01 10° ESE night (unlit)
27 Oct - 00:56:42 10° W 01:02:59 25° SSW 01:09:21 10° SSE night (unlit)
27 Oct - 17:32:27 10° SSW 17:36:39 27° SSE 17:41:41 10° E daylight
27 Oct - 19:19:17 10° WSW 19:24:49 58° S 19:31:46 10° E visible
27 Oct - 21:07:13 10° W 21:13:41 66° S 21:21:26 10° ESE visible
27 Oct - 22:55:47 10° W 23:02:43 46° SSW 23:10:26 10° SE night (unlit)
28 Oct - 00:45:43 10° WSW 00:51:31 22° SSW 00:57:28 10° SSE night (unlit)
28 Oct - 17:21:15 10° SW 17:25:22 29° SSE 17:30:22 10° E daylight
28 Oct - 19:08:12 10° WSW 19:13:34 59° S 19:20:17 10° E visible
28 Oct - 20:56:08 10° W 21:02:21 64° S 21:09:55 10° ESE visible
28 Oct - 22:44:40 10° W 22:51:18 42° SSW 22:58:48 10° SE night (unlit)
29 Oct - 00:34:51 10° WSW 00:40:04 19° SSW 00:45:27 10° SSE night (unlit)
29 Oct - 17:10:05 10° SW 17:14:08 31° SSE 17:19:03 10° E daylight
29 Oct - 18:57:10 10° WSW 19:02:19 61° S 19:08:50 10° E visible
29 Oct - 20:45:04 10° W 20:51:03 60° S 20:58:23 10° ESE visible
29 Oct - 22:33:37 10° W 22:39:55 38° SSW 22:47:06 10° SE night (unlit)
30 Oct - 00:24:10 10° WSW 00:28:37 16° SSW 00:33:15 10° S night (unlit)
30 Oct - 16:58:57 10° SW 17:02:55 34° SSE 17:07:44 10° E daylight
30 Oct - 18:46:09 10° WSW 18:51:06 61° S 18:57:23 10° E visible
30 Oct - 20:34:02 10° W 20:39:45 57° S 20:46:50 10° ESE visible
30 Oct - 22:22:36 10° W 22:28:32 33° SSW 22:35:22 10° SE night (unlit)
